N8DMH-13 Weather Reports


time (UTC)temp
C
wind
direction
speed
KPH
gust
KPH
rain 1hr
cm
rain 24hr
cm
rain mn
cm
humidity
%
barometer
mb
20260507205404 10 270 8.0 14.5 0.00 0.00 0.00 39 1011.0
20260507204904 10 248 8.0 17.7 0.00 0.00 0.00 39 1011.1
20260507204403 10 225 6.4 16.1 0.00 0.00 0.00 42 1011.0
20260507203849 10 270 6.4 12.9 0.00 0.00 0.00 42 1011.1
20260507203303 10 248 6.4 16.1 0.00 0.00 0.00 42 1011.0
20260507202733 10 248 8.0 12.9 0.00 0.00 0.00 40 1011.0
20260507202203 10 248 4.8 12.9 0.00 0.00 0.00 40 1011.1
20260507201633 10 248 8.0 14.5 0.00 0.00 0.00 40 1011.2
20260507201133 10 248 8.0 12.9 0.00 0.00 0.00 41 1011.2
20260507200605 10 270 3.2 9.7 0.00 0.00 0.00 43 1011.2
20260507195533 9 270 4.8 9.7 0.00 0.00 0.00 44 1011.4
20260507195002 9 270 3.2 9.7 0.00 0.00 0.00 46 1011.4
20260507194502 9 270 3.2 11.3 0.00 0.00 0.00 44 1011.4
20260507193932 9 248 8.0 16.1 0.00 0.00 0.00 46 1011.5
20260507193402 9 248 6.4 12.9 0.00 0.00 0.00 45 1011.5
20260507192902 9 248 4.8 11.3 0.00 0.00 0.00 45 1011.6
20260507192402 9 248 4.8 9.7 0.00 0.00 0.00 45 1011.6
20260507191832 8 248 4.8 11.3 0.00 0.00 0.00 46 1011.6
20260507191332 8 248 6.4 14.5 0.00 0.00 0.00 46 1011.7
20260507190802 8 248 4.8 9.7 0.00 0.00 0.00 46 1011.6
20260507190302 8 248 3.2 8.0 0.00 0.00 0.00 47 1011.7
20260507185732 8 225 4.8 9.7 0.00 0.00 0.00 47 1011.7
20260507185248 8 248 6.4 16.1 0.00 0.00 0.00 47 1011.7
20260507185202 8 248 6.4 16.1 0.00 0.00 0.00 47 1011.7
20260507184631 8 225 4.8 11.3 0.00 0.00 0.00 47 1011.7
20260507184101 8 225 6.4 14.5 0.00 0.00 0.00 47 1011.7
20260507183601 9 225 3.2 6.4 0.00 0.00 0.00 50 1011.7
20260507183101 8 248 3.2 9.7 0.00 0.00 0.00 48 1011.8
20260507182601 8 248 6.4 14.5 0.00 0.00 0.00 48 1011.9
20260507182031 8 248 3.2 6.4 0.00 0.00 0.00 50 1011.9
20260507181531 8 270 3.2 8.0 0.00 0.00 0.00 47 1011.9
20260507181031 8 270 3.2 11.3 0.00 0.00 0.00 48 1012.0
20260507180500 8 225 6.4 14.5 0.00 0.00 0.00 48 1012.2
20260507180000 8 248 6.4 16.1 0.00 0.00 0.00 47 1012.1
20260507175430 8 248 4.8 11.3 0.00 0.00 0.00 48 1012.2
20260507174901 8 225 3.2 6.4 0.00 0.00 0.00 49 1012.2
20260507174330 8 248 6.4 12.9 0.00 0.00 0.00 48 1012.1
20260507173800 7 270 4.8 12.9 0.00 0.00 0.00 49 1012.4
20260507173300 7 248 8.0 16.1 0.00 0.00 0.00 49 1012.5
20260507172730 7 225 8.0 17.7 0.00 0.00 0.00 48 1012.5
20260507172200 8 248 6.4 12.9 0.00 0.00 0.00 48 1012.6
20260507171659 8 270 6.4 12.9 0.00 0.00 0.00 47 1012.7
20260507171159 8 248 6.4 12.9 0.00 0.00 0.00 47 1012.6
20260507170659 8 270 6.4 12.9 0.00 0.00 0.00 46 1012.7
20260507170130 7 248 6.4 12.9 0.00 0.00 0.00 47 1012.9
20260507165629 7 248 6.4 12.9 0.00 0.00 0.00 48 1012.9
20260507165059 8 248 6.4 16.1 0.00 0.00 0.00 47 1012.9
20260507164559 8 248 4.8 11.3 0.00 0.00 0.00 47 1012.9
20260507164059 8 248 4.8 11.3 0.00 0.00 0.00 47 1012.9
20260507163559 8 248 4.8 9.7 0.00 0.00 0.00 47 1012.8
20260507163028 7 270 6.4 12.9 0.00 0.00 0.00 47 1012.9
20260507162529 7 225 8.0 14.5 0.00 0.00 0.00 47 1013.0
20260507161958 8 248 8.0 17.7 0.00 0.00 0.00 46 1013.0
20260507161458 8 248 8.0 12.9 0.00 0.00 0.00 48 1013.1
20260507160928 7 248 6.4 12.9 0.00 0.00 0.00 49 1013.1
20260507160428 7 270 8.0 12.9 0.00 0.00 0.00 48 1013.1
20260507155858 7 248 8.0 16.1 0.00 0.00 0.00 48 1013.2
20260507155358 8 225 4.8 11.3 0.00 0.00 0.00 49 1013.1
20260507154858 8 248 4.8 11.3 0.00 0.00 0.00 49 1013.1
20260507154328 7 248 8.0 16.1 0.00 0.00 0.00 48 1013.1
20260507153758 7 248 6.4 12.9 0.00 0.00 0.00 51 1013.1
20260507152728 7 248 8.0 16.1 0.00 0.00 0.00 48 1013.2
20260507152227 7 248 8.0 16.1 0.00 0.00 0.00 51 1013.2
20260507151727 7 248 6.4 12.9 0.00 0.00 0.00 54 1013.3
20260507151159 7 248 6.4 9.7 0.00 0.00 0.00 55 1013.2
20260507150657 7 248 6.4 12.9 0.00 0.00 0.00 55 1013.2
20260507150127 7 248 4.8 11.3 0.00 0.00 0.00 54 1013.3
20260507145627 7 248 8.0 14.5 0.00 0.00 0.00 53 1013.3
20260507145057 7 248 4.8 11.3 0.00 0.00 0.00 55 1013.3
20260507144557 7 248 4.8 9.7 0.00 0.00 0.00 56 1013.3
20260507144057 7 225 3.2 9.7 0.00 0.00 0.00 58 1013.3
20260507143527 7 248 4.8 11.3 0.00 0.00 0.00 56 1013.4
20260507143026 7 248 8.0 11.3 0.00 0.00 0.00 55 1013.4
20260507142526 7 248 4.8 11.3 0.00 0.00 0.00 57 1013.5
20260507141956 7 225 6.4 16.1 0.00 0.00 0.00 55 1013.5
20260507141456 7 248 4.8 11.3 0.00 0.00 0.00 55 1013.4
20260507140926 7 248 3.2 9.7 0.00 0.00 0.00 56 1013.5
20260507140426 7 248 4.8 11.3 0.00 0.00 0.00 58 1013.6
20260507135856 7 270 8.0 17.7 0.00 0.00 0.00 57 1013.4
20260507135357 7 248 8.0 12.9 0.00 0.00 0.00 57 1013.4
20260507134826 7 270 6.4 12.9 0.00 0.00 0.00 59 1013.5
20260507134326 7 248 3.2 8.0 0.00 0.00 0.00 59 1013.5
20260507133755 7 248 6.4 14.5 0.00 0.00 0.00 61 1013.6
20260507133256 7 248 6.4 12.9 0.00 0.00 0.00 62 1013.5
20260507132755 7 248 6.4 11.3 0.00 0.00 0.00 63 1013.4
20260507132225 6 225 6.4 11.3 0.00 0.00 0.00 63 1013.4
20260507131725 6 248 6.4 12.9 0.00 0.00 0.00 59 1013.5
20260507131225 6 248 4.8 9.7 0.00 0.00 0.00 65 1013.6
20260507130725 6 248 4.8 11.3 0.00 0.00 0.00 65 1013.5
20260507130155 6 248 4.8 11.3 0.00 0.00 0.00 68 1013.5
20260507125625 6 270 4.8 11.3 0.00 0.00 0.00 69 1013.5
20260507125055 5 248 4.8 11.3 0.00 0.00 0.00 70 1013.6
20260507124555 5 270 6.4 11.3 0.00 0.00 0.00 70 1013.5
20260507124054 5 270 4.8 12.9 0.00 0.00 0.00 71 1013.3
20260507123554 5 248 4.8 9.7 0.00 0.00 0.00 71 1013.3
20260507123024 5 248 4.8 11.3 0.00 0.00 0.00 74 1013.3
20260507122525 5 248 4.8 8.0 0.00 0.00 0.00 75 1013.5
20260507121954 4 270 3.2 8.0 0.00 0.00 0.00 76 1013.4
20260507121454 4 248 1.6 8.0 0.00 0.00 0.00 77 1013.4
20260507120955 3 270 3.2 6.4 0.00 0.00 0.00 77 1013.4
20260507120456 3 248 1.6 8.0 0.00 0.00 0.00 78 1013.4
20260507115354 3 248 1.6 3.2 0.00 0.00 0.00 80 1013.1
20260507114853 2 248 1.6 4.8 0.00 0.00 0.00 82 1013.1
20260507114324 2 248 1.6 3.2 0.00 0.00 0.00 82 1013.0
20260507113753 2 0 0.0 1.6 0.00 0.00 0.00 84 1013.2
20260507113253 1 0 0.0 1.6 0.00 0.00 0.00 85 1013.0
20260507112724 1 0 0.0 1.6 0.00 0.00 0.00 85 1012.9
20260507112153 1 0 0.0 1.6 0.00 0.00 0.00 85 1012.8
20260507111653 1 0 0.0 0.0 0.00 0.00 0.00 86 1012.9
20260507111123 1 0 0.0 0.0 0.00 0.00 0.00 87 1012.8
20260507110552 0 0 0.0 0.0 0.00 0.00 0.00 87 1012.9
20260507110052 0 0 0.0 0.0 0.00 0.00 0.00 87 1012.8
20260507105552 0 0 0.0 0.0 0.00 0.00 0.00 85 1012.7
20260507105052 0 0 0.0 0.0 0.00 0.00 0.00 86 1012.7
20260507104522 0 0 0.0 0.0 0.00 0.00 0.00 85 1012.7
20260507103952 0 0 0.0 0.0 0.00 0.00 0.00 85 1012.6
20260507103452 1 0 0.0 1.6 0.00 0.00 0.00 85 1012.6
20260507102922 1 0 0.0 1.6 0.00 0.00 0.00 84 1012.6
20260507102352 1 0 0.0 1.6 0.00 0.00 0.00 85 1012.6
20260507101852 1 0 0.0 3.2 0.00 0.00 0.00 86 1012.7
20260507101323 0 0 0.0 0.0 0.00 0.00 0.00 86 1012.6
20260507100822 0 0 0.0 0.0 0.00 0.00 0.00 86 1012.7
20260507100251 0 0 0.0 0.0 0.00 0.00 0.00 86 1012.6
20260507095751 1 0 0.0 0.0 0.00 0.00 0.00 85 1012.6
20260507095221 1 0 0.0 1.6 0.00 0.00 0.00 85 1012.7
20260507094721 1 0 0.0 0.0 0.00 0.00 0.00 85 1012.7
20260507094151 1 0 0.0 3.2 0.00 0.00 0.00 87 1012.7
20260507093651 0 0 0.0 0.0 0.00 0.00 0.00 85 1012.8
20260507093121 0 0 0.0 0.0 0.00 0.00 0.00 85 1012.7
20260507092621 1 0 0.0 0.0 0.00 0.00 0.00 84 1012.7
20260507092051 1 0 0.0 0.0 0.00 0.00 0.00 84 1012.8
20260507091551 1 0 0.0 0.0 0.00 0.00 0.00 84 1012.7
20260507091051 1 0 0.0 0.0 0.00 0.00 0.00 84 1012.8
20260507090550 1 0 0.0 0.0 0.00 0.00 0.00 83 1012.8
20260507090050 1 0 0.0 0.0 0.00 0.00 0.00 83 1012.8
20260507085520 2 0 0.0 0.0 0.00 0.00 0.00 82 1012.8
20260507084950 2 0 0.0 0.0 0.00 0.00 0.00 82 1012.8
20260507084450 2 0 0.0 0.0 0.00 0.00 0.00 82 1012.8
20260507083950 2 0 0.0 3.2 0.00 0.00 0.00 83 1012.8
20260507083450 2 0 0.0 0.0 0.00 0.00 0.00 82 1012.9
20260507082920 2 0 0.0 0.0 0.00 0.00 0.00 82 1012.9
20260507082420 2 0 0.0 0.0 0.00 0.00 0.00 81 1012.9
20260507081922 2 0 0.0 0.0 0.00 0.00 0.00 81 1013.1
20260507081350 2 0 0.0 0.0 0.00 0.00 0.00 80 1013.0
20260507080850 3 0 0.0 0.0 0.00 0.00 0.00 80 1013.0
20260507080320 3 0 0.0 1.6 0.00 0.00 0.00 80 1013.0
20260507075819 3 0 0.0 1.6 0.00 0.00 0.00 80 1013.0
20260507075319 3 0 0.0 3.2 0.00 0.00 0.00 80 1013.1
20260507074749 3 0 0.0 1.6 0.00 0.00 0.00 80 1013.1
20260507074219 3 0 0.0 1.6 0.00 0.00 0.00 80 1013.2
20260507073719 3 0 0.0 3.2 0.00 0.00 0.00 81 1013.2
20260507073149 2 0 0.0 0.0 0.00 0.00 0.00 80 1013.3
20260507072619 2 0 0.0 0.0 0.00 0.00 0.00 80 1013.3
20260507072119 3 0 0.0 0.0 0.00 0.00 0.00 79 1013.2
20260507071619 3 0 0.0 0.0 0.00 0.00 0.00 78 1013.3
20260507071049 3 0 0.0 0.0 0.00 0.00 0.00 78 1013.3
20260507070518 3 0 0.0 0.0 0.00 0.00 0.00 77 1013.3
20260507070019 3 0 0.0 0.0 0.00 0.00 0.00 77 1013.4
20260507065448 3 0 0.0 1.6 0.00 0.00 0.00 77 1013.5
20260507064948 3 0 0.0 0.0 0.00 0.00 0.00 76 1013.5
20260507064448 3 0 0.0 0.0 0.00 0.00 0.00 75 1013.5
20260507063948 3 0 0.0 1.6 0.00 0.00 0.00 75 1013.5
20260507063418 3 0 0.0 1.6 0.00 0.00 0.00 75 1013.6
20260507062918 3 0 0.0 1.6 0.00 0.00 0.00 74 1013.7
20260507062417 3 0 0.0 1.6 0.00 0.00 0.00 74 1013.7
20260507061848 3 0 0.0 1.6 0.00 0.00 0.00 73 1013.7
20260507061347 3 0 0.0 1.6 0.00 0.00 0.00 73 1013.8
20260507060817 3 0 0.0 1.6 0.00 0.00 0.00 73 1013.7
20260507060250 4 0 0.0 1.6 0.00 0.00 0.00 73 1013.8
20260507055748 4 0 0.0 3.2 0.00 0.00 0.00 73 1013.8
20260507055217 4 0 0.0 1.6 0.00 0.00 0.00 73 1013.8
20260507054647 4 0 0.0 3.2 0.00 0.00 0.00 72 1013.9
20260507054117 4 0 0.0 1.6 0.00 0.00 0.00 73 1013.8
20260507053617 4 0 0.0 1.6 0.00 0.00 0.00 72 1013.7
20260507053117 4 0 0.0 1.6 0.00 0.00 0.00 73 1013.9
20260507052546 4 0 0.0 0.0 0.00 0.00 0.00 72 1013.9
20260507052046 4 0 0.0 1.6 0.00 0.00 0.00 73 1013.9
20260507051546 4 0 0.0 3.2 0.00 0.00 0.00 72 1014.0
20260507051016 4 270 1.6 4.8 0.00 0.00 0.00 72 1014.1
20260507050516 4 0 0.0 4.8 0.00 0.00 0.00 72 1014.1
20260507045946 4 0 0.0 0.0 0.00 0.00 0.00 70 1014.1
20260507045446 4 0 0.0 1.6 0.00 0.00 0.00 70 1014.0
20260507044946 4 0 0.0 0.0 0.00 0.00 0.00 70 1014.0
20260507044416 4 0 0.0 0.0 0.00 0.00 0.00 69 1014.0
20260507043916 4 0 0.0 0.0 0.00 0.00 0.00 69 1014.0
20260507043345 4 0 0.0 0.0 0.00 0.00 0.00 69 1014.1
20260507042849 4 0 0.0 0.0 0.00 0.00 0.00 68 1014.0
20260507042345 4 0 0.0 0.0 0.00 0.00 0.00 68 1014.1
20260507041815 4 0 0.0 0.0 0.00 0.00 0.00 68 1014.1
20260507041316 4 0 0.0 1.6 0.00 0.00 0.00 68 1014.2
20260507040745 4 0 0.0 0.0 0.00 0.00 0.00 69 1014.2
20260507040246 4 0 0.0 0.0 0.00 0.00 0.00 69 1014.1
20260507035745 4 0 0.0 0.0 0.00 0.00 0.00 69 1014.3
20260507035215 4 0 0.0 1.6 0.00 0.00 0.00 70 1014.2
20260507034644 4 0 0.0 1.6 0.00 0.00 0.00 70 1014.2
20260507034144 4 0 0.0 0.0 0.00 0.00 0.00 71 1014.2
20260507033614 4 0 0.0 0.0 0.00 0.00 0.00 70 1014.2
20260507033044 4 0 0.0 0.0 0.00 0.00 0.00 70 1014.2
20260507032544 4 0 0.0 0.0 0.00 0.00 0.00 69 1014.3
20260507032044 4 0 0.0 0.0 0.00 0.00 0.00 69 1014.3
20260507031514 4 0 0.0 0.0 0.00 0.00 0.00 70 1014.3
20260507031014 3 0 0.0 0.0 0.00 0.00 0.00 70 1014.3
20260507030444 3 0 0.0 0.0 0.00 0.00 0.00 70 1014.4
20260507025913 4 0 0.0 0.0 0.00 0.00 0.00 70 1014.4
20260507025413 4 0 0.0 0.0 0.00 0.00 0.00 70 1014.4
20260507024843 4 0 0.0 0.0 0.00 0.00 0.00 71 1014.3
20260507024343 4 0 0.0 0.0 0.00 0.00 0.00 70 1014.4
20260507023815 4 0 0.0 0.0 0.00 0.00 0.00 70 1014.3
20260507023243 4 0 0.0 0.0 0.00 0.00 0.00 70 1014.3
20260507022743 4 0 0.0 0.0 0.00 0.00 0.00 70 1014.3
20260507022213 4 0 0.0 1.6 0.00 0.00 0.00 71 1014.3
20260507021643 4 0 0.0 0.0 0.00 0.00 0.00 71 1014.2
20260507021113 4 0 0.0 1.6 0.00 0.00 0.00 71 1014.2
20260507020613 4 0 0.0 0.0 0.00 0.00 0.00 71 1014.2
20260507020112 4 0 0.0 1.6 0.00 0.00 0.00 71 1014.2
20260507015542 4 0 0.0 1.6 0.00 0.00 0.00 71 1014.1
20260507015042 3 0 0.0 1.6 0.00 0.00 0.00 71 1014.1
20260507014512 3 0 0.0 1.6 0.00 0.00 0.00 71 1014.1
20260507014012 3 0 0.0 0.0 0.00 0.00 0.00 71 1014.0
20260507013442 3 0 0.0 1.6 0.00 0.00 0.00 71 1014.0
20260507012912 3 0 0.0 1.6 0.00 0.00 0.00 71 1013.8
20260507012412 3 0 0.0 1.6 0.00 0.00 0.00 71 1013.7
20260507011842 3 0 0.0 1.6 0.00 0.00 0.00 70 1013.8
20260507011344 3 0 0.0 1.6 0.00 0.00 0.00 70 1013.8
20260507010811 4 0 0.0 1.6 0.00 0.00 0.00 69 1013.7
20260507010311 4 0 0.0 1.6 0.00 0.00 0.00 68 1013.7
20260507005741 4 0 0.0 1.6 0.00 0.00 0.00 67 1013.7
20260507005241 4 0 0.0 1.6 0.00 0.00 0.00 66 1013.7
20260507004711 5 0 0.0 1.6 0.00 0.00 0.00 65 1013.5
20260507004211 5 0 0.0 1.6 0.00 0.00 0.00 64 1013.4
20260507003711 5 0 0.0 1.6 0.00 0.00 0.00 64 1013.3
20260507003141 5 0 0.0 3.2 0.00 0.00 0.00 63 1013.3
20260507002641 5 112 1.6 3.2 0.00 0.00 0.00 63 1013.3
20260507002110 5 68 1.6 4.8 0.00 0.00 0.00 63 1013.3
20260507001541 5 0 0.0 3.2 0.00 0.00 0.00 63 1013.3
20260507001040 6 90 1.6 4.8 0.00 0.00 0.00 61 1013.2
20260507000512 6 112 1.6 6.4 0.00 0.00 0.00 60 1013.2
20260507000010 6 45 3.2 9.7 0.00 0.00 0.00 59 1013.2
20260506235510 6 68 1.6 8.0 0.00 0.00 0.00 61 1013.1
20260506234940 6 68 1.6 8.0 0.00 0.00 0.00 61 1013.1
20260506234410 6 90 1.6 6.4 0.00 0.00 0.00 61 1013.2
20260506233911 5 90 1.6 8.0 0.00 0.00 0.00 61 1013.2
20260506233342 6 90 1.6 8.0 0.00 0.00 0.00 61 1013.3
20260506232840 5 112 1.6 8.0 0.00 0.00 0.00 63 1013.2
20260506232310 5 90 1.6 6.4 0.00 0.00 0.00 63 1013.0
20260506231809 5 112 1.6 6.4 0.00 0.00 0.00 63 1013.0
20260506231239 5 112 3.2 6.4 0.00 0.00 0.00 63 1013.1
20260506230709 6 112 3.2 4.8 0.00 0.00 0.00 63 1013.1
20260506230209 6 112 3.2 9.7 0.00 0.00 0.00 62 1013.1
20260506225639 6 90 1.6 6.4 0.00 0.00 0.00 63 1013.2
20260506225109 6 90 1.6 4.8 0.00 0.00 0.00 64 1013.1
20260506224609 6 90 3.2 12.9 0.00 0.00 0.00 64 1013.1
20260506224039 6 135 3.2 9.7 0.00 0.00 0.00 63 1013.2
20260506223540 6 112 3.2 11.3 0.00 0.00 0.00 62 1013.2
20260506223038 6 112 3.2 6.4 0.00 0.00 0.00 62 1013.2
20260506222508 6 135 1.6 6.4 0.00 0.00 0.00 63 1013.1
20260506221938 6 112 3.2 6.4 0.00 0.00 0.00 62 1013.1
20260506221438 6 45 4.8 12.9 0.00 0.00 0.00 61 1012.9
20260506220938 6 45 1.6 8.0 0.00 0.00 0.00 63 1012.8
20260506220408 6 45 3.2 9.7 0.00 0.00 0.00 61 1013.0
20260506215908 6 90 3.2 11.3 0.00 0.00 0.00 61 1012.9
20260506215408 6 68 3.2 8.0 0.00 0.00 0.00 63 1012.8
20260506214838 7 112 3.2 11.3 0.00 0.00 0.00 61 1012.8
20260506214338 7 68 3.2 8.0 0.00 0.00 0.00 61 1012.9
20260506213808 7 45 1.6 8.0 0.00 0.00 0.00 61 1012.8
20260506213307 7 90 3.2 9.7 0.00 0.00 0.00 60 1012.7
20260506212808 7 68 3.2 8.0 0.00 0.00 0.00 61 1012.7
20260506212237 7 68 3.2 8.0 0.00 0.00 0.00 62 1012.8
20260506211707 7 45 4.8 8.0 0.00 0.00 0.00 61 1012.7
20260506211208 7 68 3.2 8.0 0.00 0.00 0.00 61 1012.7
20260506210707 7 45 4.8 11.3 0.00 0.00 0.00 61 1012.7
20260506210137 7 45 4.8 9.7 0.00 0.00 0.00 60 1012.6
20260506205637 7 68 1.6 6.4 0.00 0.00 0.00 58 1012.6